{"data":{"norad_id":66624,"intl_designator":"2025-271H","name":"STARLINK-35927","alt_names":[],"object_type":"PAYLOAD","status":"ACTIVE","operator":null,"country":"US","launch_date":"2025-11-23","launch_site_code":"AFWTR","launch_vehicle":null,"mission":null,"orbit_class":"UNKNOWN","rcs_meters":null,"size_class":null,"mass_kg":null,"dimensions":null,"purposes":["comms"],"wikipedia_slug":null,"has_3d_model":false,"image_url":null,"decayed_at":null,"tle_current":{"epoch":"2026-05-24T23:55:36.852384Z","epoch_age_seconds":71451,"freshness":"FRESH","line1":"1 66624U 25271H   26144.99695431  .00012792  00000+0  44318-3 0  9997","line2":"2 66624  53.1597 145.2078 0001268  96.5779 263.5366 15.30207015 29256","mean_motion":15.30207015,"eccentricity":0.0001268,"inclination_deg":53.1597,"raan_deg":145.2078,"arg_perigee_deg":96.5779,"mean_anomaly_deg":263.5366,"bstar":0.00044318,"rev_number":2925,"period_min":94.104914294881,"perigee_km":474.32512158728,"apogee_km":476.06312636032,"semimajor_km":6853.3311239738,"source":"CELESTRAK","updated_at":"2026-05-25T13:38:21.295403Z"}}}